Hourly Data Report for October 07, 2014

All times are specified in Local Standard Time (LST). Add 1 hour to adjust for Daylight Saving Time where and when it is observed.

POND INLET A
NUNAVUT

72°41'22.000" N
77°58'08.000" W
61.60 m
2403206
71095
YIO

Download Data

Hourly Data (October 2014)
Hourly Data Report for October 7, 2014
Temp Definition
°C
Dew Point Temp Definition
°C
Rel Hum Definition
%
Wind Dir Definition
10's deg

Wind Spd Definition
km/h
Visibility Definition
km
Stn Press Definition
kPa
Hmdx Definition


Wind Chill Definition


Weather Definition


TIME
00:00 Legend Double Dagger -6.3 -9.4 79 17 5 16.1 102.44   -9 LegendNANA
01:00 Legend Double Dagger -8.8 -11.4 82 13 11 16.1 102.44   -14 LegendNANA
02:00 Legend Double Dagger -6.4 -9.3 80 18 5 16.1 102.48   -9 LegendNANA
03:00 Legend Double Dagger -6.3 -9.4 79 9 8 16.1 102.43   -10 LegendNANA
04:00 Legend Double Dagger -4.5 -8.8 72 24 5 16.1 102.42   -7 LegendNANA
05:00 Legend Double Dagger -7.7 -11.6 74 15 22 16.1 102.40   -15 LegendNANA
06:00 Legend Double Dagger -3.9 -6.9 80 34 11 16.1 102.43   -8 LegendNANA
07:00 Legend Double Dagger -7.0 -9.9 80 16 15 16.1 102.41   -13 LegendNANA
08:00 Legend Double Dagger -7.8 -10.3 83 16 15 16.1 102.41   -14 LegendNANA
09:00 Legend Double Dagger -5.6 -8.7 79 22 4 16.1 102.40   -7 LegendNANA
10:00 Legend Double Dagger -4.8 -7.3 83 25 5 16.1 102.36   -7 LegendNANA
11:00 Legend Double Dagger -8.2 -10.8 82 18 13 16.1 102.36   -14 LegendNANA
12:00 Legend Double Dagger -6.8 -9.1 84 18 8 16.1 102.39   -11 LegendNANA
13:00 Legend Double Dagger -5.2 -7.8 82 LegendMM 4 16.1 102.38   -7 LegendNANA
14:00 Legend Double Dagger -6.1 -8.4 84 20 8 16.1 102.41   -10 LegendNANA
15:00 Legend Double Dagger -6.0 -8.1 85 16 8 16.1 102.42   -10 LegendNANA
16:00 Legend Double Dagger -6.7 -8.1 90 LegendMM 4 16.1 102.42   -9 LegendNANA
17:00 Legend Double Dagger -8.6 -9.7 92 14 13 16.1 102.42   -15 LegendNANA
18:00 Legend Double Dagger -6.3 -7.5 91 15 13 16.1 102.40   -12 LegendNANA
19:00 Legend Double Dagger -6.3 -7.3 93 14 18 16.1 102.36   -13 LegendNANA
20:00 Legend Double Dagger -7.3 -8.4 92 14 21 16.1 102.35   -15 LegendNANA
21:00 Legend Double Dagger -7.1 -7.9 94 13 17 16.1 102.33   -14 LegendNANA
22:00 Legend Double Dagger -6.5 -7.7 91 15 15 16.1 102.31   -12 LegendNANA
23:00 Legend Double Dagger -6.6 -7.8 91 16 13 16.1 102.30   -12 LegendNANA

Notes on Data Quality.

Legend

  • E = Estimated
  • M = Missing
  • NA = Not Available
  • ‡ = Partner data that is not subject to review by the National Climate Archives
Date modified: